Location: Lafig�re
(44.4503°N, 4.0357°E)
Time: 15:11:12
(UTC+00:00)

Meteor 1-15 Rocket - Pass Details

Date: 24 September 2020
Orbit: 840 x 907 km, 81.2° (Epoch: 25 October)

Event Time Altitude Azimuth Distance (km) Brightness Sun altitude
Rises 19:18:38 0° 194° (SSW) 3,402 7.3 -18.7°
Reaches altitude 10° 19:21:02 10° 197° (SSW) 2,479 6.6 -19.1°
Maximum altitude 19:26:39 73° 281° (WNW) 907 4.4 -20.1°
Drops below altitude 10° 19:32:25 10° 7° (N) 2,540 6.8 -21.0°
Sets 19:34:55 0° 9° (N) 3,493 7.6 -21.5°
